Weather History for Carroll, IA

Change the Weather History Date:

Thursday, April 3, 2014

  Actual Average Record
Temperature  
Mean Temperature 37 °F -  
Max Temperature 42 °F 53 °F 81 °F (1978)
Min Temperature 32 °F 30 °F 4 °F (1975)
Degree Days  
Heating Degree Days 28    
Moisture  
Dew Point 37 °F    
Average Humidity 97    
Maximum Humidity 100    
Minimum Humidity 81    
Precipitation  
Precipitation 0.08 in - - ()
Sea Level Pressure  
Sea Level Pressure 29.73 in    
Wind  
Wind Speed 14 mph (NE)    
Max Wind Speed 23 mph    
Max Gust Speed 28 mph    
Visibility 2 miles    
Events Rain    
Averages and records for this station are not official NWS values.
T = Trace of Precipitation, MM = Missing Value Source: NWS Daily Summary

Daily Weather History Graph

Daily Weather History Graph

Search for Another Location

Airport:

Trip Planner

Search our weather history database for the weather conditions in past years. The results will help you decide how hot, cold, wet, or windy it might be!

Date:

Astronomy

Apr. 03, 2014 Rise Set
Actual Time 6:58 AM CDT 7:47 PM CDT
Civil Twilight 6:30 AM CDT 8:15 PM CDT
Nautical Twilight 5:56 AM CDT 8:49 PM CDT
Astronomical Twilight 5:21 AM CDT 9:24 PM CDT
Moon 9:24 AM CDT (4/3) No Moon Set
Length of Visible Light 13h 45m
Length of Day
12h 48m
Waxing Crescent, 17% of the Moon is Illuminated
Apr 3
Waxing Crescent
Apr 7
First Quarter
Apr 15
Full
Apr 22
Last Quarter
Apr 29
New

Hourly Weather History & Observations

Time (CDT) Temp. Windchill Dew Point Humidity Pressure Visibility Wind Dir Wind Speed Gust Speed Precip Events Conditions
12:15 AM 42.8 °F 36.2 °F 37.4 °F 81% 29.84 in 7.0 mi East 12.7 mph - N/A   Overcast
12:35 AM 42.8 °F 36.2 °F 37.4 °F 81% 29.82 in 6.0 mi East 12.7 mph - N/A   Haze
12:55 AM 41.0 °F 33.5 °F 37.4 °F 87% 29.82 in 5.0 mi East 13.8 mph 20.7 mph N/A   Overcast
1:15 AM 41.0 °F 33.9 °F 39.2 °F 93% 29.80 in 5.0 mi East 12.7 mph 19.6 mph N/A   Overcast
1:35 AM 41.0 °F 33.9 °F 39.2 °F 93% 29.80 in 5.0 mi East 12.7 mph - N/A   Overcast
1:55 AM 41.0 °F 33.1 °F 39.2 °F 93% 29.80 in 4.0 mi East 15.0 mph - N/A   Overcast
2:15 AM 41.0 °F 33.5 °F 39.2 °F 93% 29.79 in 2.5 mi East 13.8 mph - N/A   Overcast
2:35 AM 41.0 °F 32.8 °F 39.2 °F 93% 29.77 in 1.8 mi East 16.1 mph - N/A   Overcast
2:55 AM 41.0 °F 33.9 °F 39.2 °F 93% 29.78 in 1.5 mi East 12.7 mph - N/A   Overcast
3:15 AM 39.2 °F 31.2 °F 39.2 °F 100% 29.78 in 1.0 mi East 13.8 mph - N/A   Overcast
3:35 AM 39.2 °F 30.5 °F 39.2 °F 100% 29.78 in 1.2 mi East 16.1 mph - N/A   Overcast
3:55 AM 39.2 °F 32.0 °F 39.2 °F 100% 29.79 in 1.2 mi East 11.5 mph - N/A   Overcast
4:15 AM 39.2 °F 30.5 °F 39.2 °F 100% 29.76 in 1.2 mi ENE 16.1 mph - N/A   Overcast
4:35 AM 39.2 °F 30.5 °F 37.4 °F 93% 29.75 in 1.2 mi ENE 16.1 mph - N/A   Overcast
4:55 AM 37.4 °F 28.2 °F 37.4 °F 100% 29.76 in 1.8 mi East 16.1 mph - 0.01 in   Overcast
5:15 AM 37.4 °F 29.3 °F 37.4 °F 100% 29.77 in 2.0 mi ENE 12.7 mph - N/A   Overcast
5:35 AM 37.4 °F 29.8 °F 37.4 °F 100% 29.78 in 1.5 mi ENE 11.5 mph - N/A   Overcast
5:55 AM 37.4 °F 28.9 °F 37.4 °F 100% 29.77 in 1.2 mi ENE 13.8 mph - N/A   Overcast
6:15 AM 37.4 °F 28.9 °F 37.4 °F 100% 29.77 in 1.5 mi NE 13.8 mph - N/A   Overcast
6:35 AM 37.4 °F 28.5 °F 35.6 °F 93% 29.76 in 2.0 mi ENE 15.0 mph - N/A   Overcast
7:15 AM 35.6 °F 27.1 °F 35.6 °F 100% 29.78 in 2.0 mi ENE 12.7 mph 18.4 mph N/A   Overcast
7:35 AM 35.6 °F 26.2 °F 35.6 °F 100% 29.76 in 1.8 mi ENE 15.0 mph 21.9 mph N/A   Overcast
7:55 AM 35.6 °F 26.6 °F 35.6 °F 100% 29.76 in 1.5 mi ENE 13.8 mph - N/A   Overcast
8:15 AM 35.6 °F 26.2 °F 35.6 °F 100% 29.77 in 1.5 mi East 15.0 mph - N/A   Overcast
8:35 AM 35.6 °F 27.1 °F 35.6 °F 100% 29.76 in 1.2 mi East 12.7 mph - N/A   Overcast
8:55 AM 35.6 °F 26.6 °F 35.6 °F 100% 29.76 in 1.0 mi ENE 13.8 mph - N/A   Overcast
9:15 AM 35.6 °F 26.6 °F 35.6 °F 100% 29.75 in 0.8 mi ENE 13.8 mph - N/A   Overcast
9:35 AM 35.6 °F 27.5 °F 35.6 °F 100% 29.76 in 1.0 mi ENE 11.5 mph - N/A   Overcast
9:55 AM 35.6 °F 27.5 °F 35.6 °F 100% 29.77 in 1.0 mi ENE 11.5 mph - N/A   Overcast
10:15 AM 35.6 °F 26.2 °F 35.6 °F 100% 29.76 in 1.0 mi ENE 15.0 mph - N/A   Overcast
10:35 AM 37.4 °F 28.9 °F 35.6 °F 93% 29.75 in 0.8 mi ENE 13.8 mph - N/A   Overcast
10:55 AM 37.4 °F 28.5 °F 35.6 °F 93% 29.75 in 1.0 mi East 15.0 mph - N/A   Overcast
11:15 AM 37.4 °F 30.3 °F 37.4 °F 100% 29.76 in 1.2 mi ENE 10.4 mph - N/A   Overcast
11:35 AM 37.4 °F 28.9 °F 37.4 °F 100% 29.75 in 1.2 mi ENE 13.8 mph - N/A   Overcast
11:55 AM 37.4 °F 29.8 °F 37.4 °F 100% 29.74 in 1.2 mi ENE 11.5 mph - N/A   Overcast
12:15 PM 37.4 °F 29.8 °F 37.4 °F 100% 29.73 in 1.5 mi ENE 11.5 mph 17.3 mph N/A   Overcast
12:35 PM 39.2 °F 32.0 °F 37.4 °F 93% 29.73 in 1.5 mi ENE 11.5 mph - N/A   Overcast
1:15 PM 39.2 °F 32.0 °F 39.2 °F 100% 29.72 in 1.8 mi ENE 11.5 mph - N/A   Overcast
1:35 PM 39.2 °F 31.2 °F 39.2 °F 100% 29.70 in 2.0 mi ENE 13.8 mph - N/A   Overcast
1:55 PM 39.2 °F 31.6 °F 39.2 °F 100% 29.70 in 1.8 mi NE 12.7 mph - N/A   Overcast
2:15 PM 39.2 °F 30.8 °F 39.2 °F 100% 29.68 in 1.8 mi NE 15.0 mph - N/A   Overcast
2:35 PM 39.2 °F 32.0 °F 39.2 °F 100% 29.68 in 1.5 mi NE 11.5 mph 19.6 mph N/A   Overcast
2:55 PM 39.2 °F 32.5 °F 39.2 °F 100% 29.69 in 1.2 mi NE 10.4 mph 16.1 mph N/A   Overcast
3:15 PM 39.2 °F 31.6 °F 39.2 °F 100% 29.68 in 1.0 mi NE 12.7 mph - N/A   Overcast
3:35 PM 41.0 °F 34.7 °F 39.2 °F 93% 29.68 in 1.0 mi NE 10.4 mph - N/A   Overcast
3:55 PM 41.0 °F 33.9 °F 39.2 °F 93% 29.66 in 0.8 mi NE 12.7 mph - 0.01 in   Overcast
4:15 PM 41.0 °F 33.9 °F 39.2 °F 93% 29.66 in 0.8 mi NNE 12.7 mph - N/A   Overcast
4:35 PM 39.2 °F 30.8 °F 39.2 °F 100% 29.66 in 1.0 mi NNE 15.0 mph - N/A Rain Light Rain
4:55 PM 39.2 °F 31.2 °F 39.2 °F 100% 29.66 in 1.2 mi NNE 13.8 mph - 0.02 in Rain Light Rain
5:15 PM 39.2 °F 30.5 °F 39.2 °F 100% 29.65 in 0.8 mi NNE 16.1 mph - N/A Rain Light Rain
5:35 PM 39.2 °F 30.2 °F 39.2 °F 100% 29.66 in 1.2 mi North 17.3 mph - N/A Rain Light Rain
5:55 PM 39.2 °F 30.8 °F 37.4 °F 93% 29.66 in 1.5 mi North 15.0 mph 20.7 mph 0.02 in Rain Light Rain
6:15 PM 37.4 °F 28.2 °F 37.4 °F 100% 29.67 in 0.8 mi North 16.1 mph - N/A Rain Light Rain
6:35 PM 37.4 °F 27.8 °F 35.6 °F 93% 29.67 in 0.8 mi North 17.3 mph - N/A Rain Light Rain
6:55 PM 37.4 °F 27.5 °F 35.6 °F 93% 29.69 in 1.2 mi North 18.4 mph - 0.02 in Rain Light Rain
7:15 PM 35.6 °F 24.5 °F 35.6 °F 100% 29.69 in 1.0 mi North 20.7 mph - N/A Rain Light Rain
7:35 PM 35.6 °F 24.0 °F 33.8 °F 93% 29.69 in 1.2 mi North 23.0 mph - N/A   Overcast
7:55 PM 35.6 °F 24.8 °F 33.8 °F 93% 29.68 in 1.5 mi North 19.6 mph 27.6 mph N/A Rain Light Rain
8:15 PM 35.6 °F 25.5 °F 33.8 °F 93% 29.69 in 2.5 mi North 17.3 mph 26.5 mph N/A Rain Light Rain
8:35 PM 33.8 °F 23.2 °F 33.8 °F 100% 29.69 in 2.5 mi North 17.3 mph - N/A   Overcast
8:55 PM 33.8 °F 22.5 °F 33.8 °F 100% 29.68 in 2.0 mi North 19.6 mph 25.3 mph N/A Rain Light Rain
9:15 PM 33.8 °F 22.5 °F 32.0 °F 93% 29.69 in 2.5 mi North 19.6 mph 26.5 mph N/A Rain Light Rain
9:35 PM 33.8 °F 23.2 °F 32.0 °F 93% 29.70 in 2.5 mi North 17.3 mph 25.3 mph N/A   Overcast
11:15 PM 32.0 °F 20.5 °F 32.0 °F 100% 29.66 in 3.0 mi NNW 18.4 mph - N/A   Overcast
11:35 PM 32.0 °F 19.8 °F 32.0 °F 100% 29.66 in 2.0 mi NNW 20.7 mph - N/A Rain Light Rain
11:55 PM 32.0 °F 20.1 °F 32.0 °F 100% 29.66 in 1.5 mi NNW 19.6 mph - N/A Rain Rain